THOR ABLESTAR DEB, 1099

Orbit data source: Space-Track

THOR ABLESTAR DEB, 1099 is space debris in LEO originally from a launch on Sun, 13 Dec 1964 UTC launched from the Air Force Western Test Range (AFWTR). Debris objects in space refer to the collection of defunct objects orbiting the Earth. Examples of debris include non-operational satellites, rocket bodies, and fragments generated from explosions, collisions, or faulty payload assembly.

Loading next visibility...
Identifier
1099, 1964-083G
Orbit
LEO
Country
Flag of USUS
Related business
Manufacturer
Unknown
Mission
Spacecraft
Bus & Motor
Unknown
Mass
Unknown
Launch date (UTC)
1964-12-13 (61 years ago)
Launch vehicle
Unknown
Launch site
Air Force Western Test Range (AFWTR)
Object type
Payload
Rocket body
Debris
Shape & HBR
Unknown
Radar Cross Section
0.550 m², Medium (>0.1 m² and < 1m²)

Expand to show TLE details & history
Last TLE update: 16 hours ago

TLE from 16 hours ago
0 THOR ABLESTAR DEB
1 01099U 64083G   25259.14899130  .00000174  00000-0  20955-3 0  9994
2 01099  89.8268 143.1646 0040416  15.5677 138.6060 13.62724097945084
Epoch: 2025-09-16T03:34Z
TLE epoch observation values (Epoch: 2025-09-16T03:34:32.848Z)
Latitude
25.54946°
Longitude
-85.89808°
Altitude
1,051.481 km
Speed
7.317 km/s
True Right ascension
21h 32m 19s
True Declination
25° 25' 16"
Sunlit
Object was in full shadow at epoch
Visualization orbit readout
Latitude
Unknown
Longitude
Unknown
Altitude
Unknown
Speed
Unknown
Apparent Right ascension
Unknown
Apparent Declination
Unknown
Sunlit
N/A
Visualization observer readout
Local Sidereal Time
12:24:44
Azimuth
Unknown
Elevation
Unknown
Doppler factor
Unknown
Orbital elements
Apogee altitude
1,052.752 km
Perigee altitude
992.928 km
Semi-major axis
7,400.977 km
Eccentricity
0.00404
Inclination
89.8268°
RAAN
143.1646°
Arg. of periapsis
15.5677°
True anomaly
138.91108°
Mean anomaly
138.606°
Eccentric anomaly
138.75866°
Mean motion
3.40886 °/min
Orbital period
105.61 mins
BSTAR
0.00020955
Loading maneuver chart data...
Computing Atmospheric mass density...

Documentation

Showing up to 5 results
|